GW4240 Weather Reports


Display with metric or nautical units.
time (UTC)temp
F
wind
direction
speed
MPH
gust
MPH
rain 1hr
in
rain 24hr
in
rain mn
in
humidity
%
barometer
mb
20260906122524 49 297 0.0 1.0 0.00 0.00 0.00 96 1016.8
20260906122025 49 297 1.0 1.0 0.00 0.00 0.00 96 1016.8
20260906121548 50 0 0.0 1.0 0.00 0.00 0.00 96 1016.8
20260906121025 50 302 0.0 1.0 0.00 0.00 0.00 96 1017.0
20260906120525 50 302 1.0 1.0 0.00 0.00 0.00 96 1016.9
20260906120050 50 292 1.0 2.0 0.00 0.00 0.00 96 1016.8
20260906115531 50 292 1.0 2.0 0.00 0.00 0.00 96 1016.9
20260906115024 50 292 1.0 2.0 0.00 0.00 0.00 96 1016.8
20260906114545 50 6 0.0 2.0 0.00 0.00 0.00 96 1016.8
20260906114026 50 0 0.0 2.0 0.00 0.00 0.00 96 1016.7
20260906113525 50 6 1.0 2.0 0.00 0.00 0.00 96 1016.7
20260906113051 50 295 1.0 2.0 0.00 0.00 0.00 95 1016.8
20260906112525 50 295 1.0 3.0 0.00 0.00 0.00 96 1016.8
20260906112026 50 295 2.0 3.0 0.00 0.00 0.00 95 1016.8
20260906111553 50 293 2.0 2.0 0.00 0.00 0.00 95 1016.9
20260906111025 50 274 1.0 1.0 0.00 0.00 0.00 95 1017.0
20260906110525 51 0 0.0 1.0 0.00 0.00 0.00 95 1017.0
20260906110047 51 301 1.0 2.0 0.00 0.00 0.00 95 1017.0
20260906105527 51 297 1.0 2.0 0.00 0.00 0.00 95 1017.0
20260906105024 51 300 0.0 1.0 0.00 0.00 0.00 95 1017.0
20260906104616 51 0 0.0 1.0 0.00 0.00 0.00 95 1017.0
20260906104024 51 327 0.0 2.0 0.00 0.00 0.00 95 1017.0
20260906103526 51 319 1.0 2.0 0.00 0.00 0.00 95 1017.0
20260906103048 51 283 1.0 2.0 0.00 0.00 0.00 95 1016.8
20260906102526 51 275 1.0 3.0 0.00 0.00 0.00 94 1016.9
20260906102027 51 275 1.0 3.0 0.00 0.00 0.00 95 1016.8
20260906101547 51 341 1.0 2.0 0.00 0.00 0.00 95 1016.9
20260906101025 51 0 0.0 0.0 0.00 0.00 0.00 94 1016.9
20260906100525 51 0 0.0 1.0 0.00 0.00 0.00 94 1016.9
20260906100046 51 0 0.0 1.0 0.00 0.00 0.00 94 1017.0
20260906095524 51 28 1.0 1.0 0.00 0.00 0.00 94 1016.9
20260906095027 51 29 0.0 1.0 0.00 0.00 0.00 95 1017.0
20260906094551 50 0 0.0 2.0 0.00 0.00 0.00 94 1017.0
20260906094021 50 0 0.0 2.0 0.00 0.00 0.00 93 1016.9
20260906093527 50 278 2.0 2.0 0.00 0.00 0.00 94 1016.9
20260906093103 50 285 1.0 3.0 0.00 0.00 0.00 94 1016.8
20260906092524 51 292 2.0 3.0 0.00 0.00 0.00 94 1016.9
20260906092028 51 293 2.0 2.0 0.00 0.00 0.00 94 1017.0
20260906091548 51 293 1.0 2.0 0.00 0.00 0.00 94 1017.0
20260906091024 51 330 1.0 2.0 0.00 0.00 0.00 94 1017.0
20260906090525 51 290 1.0 2.0 0.00 0.00 0.00 94 1017.1
20260906090055 51 0 0.0 2.0 0.00 0.00 0.00 93 1017.1
20260906085526 51 291 0.0 2.0 0.00 0.00 0.00 93 1017.0
20260906085022 51 291 1.0 2.0 0.00 0.00 0.00 94 1017.0
20260906084548 52 290 1.0 2.0 0.00 0.00 0.00 93 1017.1
20260906084023 52 288 1.0 2.0 0.00 0.00 0.00 94 1017.1
20260906083524 52 286 1.0 2.0 0.00 0.00 0.00 94 1017.1
20260906083049 52 269 1.0 2.0 0.00 0.00 0.00 93 1017.2
20260906082527 52 269 1.0 2.0 0.00 0.00 0.00 94 1017.2
20260906082025 52 290 0.0 1.0 0.00 0.00 0.00 93 1017.2
20260906081549 52 0 0.0 0.0 0.00 0.00 0.00 94 1017.3
20260906081025 52 0 0.0 0.0 0.00 0.00 0.00 94 1017.2
20260906080524 52 0 0.0 0.0 0.00 0.00 0.00 94 1017.1
20260906080046 52 0 0.0 1.0 0.00 0.00 0.00 94 1017.3
20260906075525 52 0 0.0 1.0 0.00 0.00 0.00 93 1017.4
20260906075024 52 295 0.0 2.0 0.00 0.00 0.00 94 1017.3
20260906074550 52 295 1.0 2.0 0.00 0.00 0.00 93 1017.3
20260906074028 52 316 1.0 1.0 0.00 0.00 0.00 93 1017.2
20260906073522 52 316 0.0 2.0 0.00 0.00 0.00 93 1017.3
20260906073048 52 316 1.0 2.0 0.00 0.00 0.00 94 1017.3
20260906072525 52 290 1.0 2.0 0.00 0.00 0.00 93 1017.3
20260906072028 52 288 1.0 2.0 0.00 0.00 0.00 93 1017.4
20260906071547 53 0 0.0 0.0 0.00 0.00 0.00 93 1017.4
20260906071025 53 0 0.0 1.0 0.00 0.00 0.00 93 1017.3
20260906070525 53 0 0.0 1.0 0.00 0.00 0.00 93 1017.4
20260906070047 53 335 0.0 2.0 0.00 0.00 0.00 94 1017.5
20260906065526 53 0 0.0 2.0 0.00 0.00 0.00 93 1017.4
20260906065026 53 328 1.0 2.0 0.00 0.00 0.00 93 1017.3
20260906064550 53 305 1.0 2.0 0.00 0.00 0.00 93 1017.4
20260906064025 53 293 2.0 3.0 0.00 0.00 0.00 92 1017.4
20260906063525 53 283 2.0 3.0 0.00 0.00 0.00 93 1017.4
20260906063049 53 0 0.0 0.0 0.00 0.00 0.00 92 1017.3
20260906062525 53 0 0.0 0.0 0.00 0.00 0.00 93 1017.3
20260906062024 53 0 0.0 0.0 0.00 0.00 0.00 92 1017.3
20260906061551 53 0 0.0 0.0 0.00 0.00 0.00 92 1017.3
20260906061024 53 0 0.0 0.0 0.00 0.00 0.00 91 1017.1
20260906060524 54 0 0.0 0.0 0.00 0.00 0.00 92 1017.1
20260906060044 54 0 0.0 0.0 0.00 0.00 0.00 91 1017.1
20260906055524 54 0 0.0 2.0 0.00 0.00 0.00 91 1017.1
20260906055024 54 312 1.0 2.0 0.00 0.00 0.00 91 1017.0
20260906054601 54 0 0.0 1.0 0.00 0.00 0.00 91 1017.0
20260906054025 54 0 0.0 1.0 0.00 0.00 0.00 91 1017.2
20260906053524 54 300 0.0 1.0 0.00 0.00 0.00 91 1017.1
20260906053053 54 300 1.0 1.0 0.00 0.00 0.00 90 1017.1
20260906052527 54 300 1.0 1.0 0.00 0.00 0.00 90 1017.2
20260906052025 55 314 1.0 1.0 0.00 0.00 0.00 90 1017.3
20260906051547 55 314 0.0 1.0 0.00 0.00 0.00 90 1017.3
20260906051026 55 0 0.0 0.0 0.00 0.00 0.00 89 1017.4
20260906050526 55 0 0.0 0.0 0.00 0.00 0.00 89 1017.4
20260906050120 55 0 0.0 1.0 0.00 0.00 0.00 89 1017.4
20260906045523 55 0 0.0 1.0 0.00 0.00 0.00 89 1017.4
20260906045025 55 314 1.0 1.0 0.00 0.00 0.00 88 1017.4
20260906044549 55 0 0.0 0.0 0.00 0.00 0.00 88 1017.5
20260906044027 56 0 0.0 1.0 0.00 0.00 0.00 88 1017.4
20260906043524 56 0 0.0 1.0 0.00 0.00 0.00 88 1017.5
20260906043047 56 326 1.0 1.0 0.00 0.00 0.00 88 1017.5
20260906042524 56 292 1.0 1.0 0.00 0.00 0.00 87 1017.5
20260906042025 56 292 0.0 1.0 0.00 0.00 0.00 87 1017.5
20260906041547 56 292 1.0 1.0 0.00 0.00 0.00 86 1017.4
20260906041026 57 292 1.0 1.0 0.00 0.00 0.00 86 1017.4
20260906040524 57 314 0.0 1.0 0.00 0.00 0.00 86 1017.5
20260906035526 57 293 0.0 1.0 0.00 0.00 0.00 85 1017.5
20260906035025 57 291 0.0 1.0 0.00 0.00 0.00 84 1017.4
20260906034548 58 0 0.0 1.0 0.00 0.00 0.00 83 1017.4
20260906034024 58 0 0.0 1.0 0.00 0.00 0.00 83 1017.4
20260906033527 59 290 0.0 1.0 0.00 0.00 0.00 81 1017.3
20260906033055 59 0 0.0 1.0 0.00 0.00 0.00 80 1017.3
20260906032530 59 0 0.0 1.0 0.00 0.00 0.00 79 1017.2
20260906032026 60 283 0.0 1.0 0.00 0.00 0.00 78 1017.2
20260906031543 60 290 0.0 2.0 0.00 0.00 0.00 78 1017.2
20260906031029 60 288 1.0 2.0 0.00 0.00 0.00 77 1017.1
20260906030526 61 288 1.0 2.0 0.00 0.00 0.00 76 1017.2
20260906030052 61 288 1.0 3.0 0.00 0.00 0.00 75 1017.1
20260906025524 62 296 2.0 3.0 0.00 0.00 0.00 74 1017.2
20260906025025 62 295 2.0 2.0 0.00 0.00 0.00 73 1017.3
20260906024557 63 292 2.0 3.0 0.00 0.00 0.00 72 1017.3
20260906024025 63 285 2.0 3.0 0.00 0.00 0.00 71 1017.3
20260906023528 64 293 2.0 3.0 0.00 0.00 0.00 70 1017.3
20260906023047 65 314 1.0 2.0 0.00 0.00 0.00 69 1017.3
20260906022526 65 0 0.0 2.0 0.00 0.00 0.00 67 1017.4
20260906022027 66 0 0.0 2.0 0.00 0.00 0.00 65 1017.4
20260906021552 67 327 1.0 2.0 0.00 0.00 0.00 64 1017.4
20260906021029 67 285 1.0 2.0 0.00 0.00 0.00 62 1017.3
20260906020526 68 294 2.0 2.0 0.00 0.00 0.00 62 1017.3
20260906020058 68 275 1.0 2.0 0.00 0.00 0.00 62 1017.2
20260906015525 68 226 1.0 3.0 0.00 0.00 0.00 62 1017.1
20260906015024 68 308 2.0 3.0 0.00 0.00 0.00 62 1017.1
20260906014611 68 277 2.0 5.0 0.00 0.00 0.00 62 1017.1
20260906014026 68 271 2.0 5.0 0.00 0.00 0.00 62 1017.0
20260906013527 68 264 3.0 5.0 0.00 0.00 0.00 61 1017.0
20260906013049 68 242 2.0 6.0 0.00 0.00 0.00 62 1017.1
20260906012527 68 263 3.0 6.0 0.00 0.00 0.00 63 1016.8
20260906012024 68 248 2.0 6.0 0.00 0.00 0.00 63 1017.0
20260906011548 69 254 3.0 6.0 0.00 0.00 0.00 63 1017.0
20260906011025 70 257 1.0 3.0 0.00 0.00 0.00 62 1016.8
20260906010529 69 300 1.0 5.0 0.00 0.00 0.00 64 1016.7
20260906010047 69 284 3.0 5.0 0.00 0.00 0.00 64 1016.8
20260906005527 69 245 2.0 5.0 0.00 0.00 0.00 63 1016.6
20260906005025 70 243 3.0 5.0 0.00 0.00 0.00 62 1016.7
20260906004545 71 111 2.0 5.0 0.00 0.00 0.00 61 1016.7
20260906004028 70 289 2.0 5.0 0.00 0.00 0.00 59 1016.7
20260906003526 71 138 3.0 5.0 0.00 0.00 0.00 56 1016.7
20260906003047 71 295 1.0 5.0 0.00 0.00 0.00 56 1016.7
20260906002525 71 293 1.0 5.0 0.00 0.00 0.00 56 1016.7
20260906002025 72 242 2.0 5.0 0.00 0.00 0.00 56 1016.6
20260906001548 72 247 1.0 4.0 0.00 0.00 0.00 56 1016.7
20260906001025 71 327 1.0 5.0 0.00 0.00 0.00 56 1016.7
20260906000525 71 267 2.0 5.0 0.00 0.00 0.00 56 1016.7
20260906000048 70 264 2.0 6.0 0.00 0.00 0.00 60 1016.7
20260905235526 69 308 3.0 6.0 0.00 0.00 0.00 60 1016.6
20260905235030 69 281 4.0 6.0 0.00 0.00 0.00 59 1016.6
20260905234606 69 295 3.0 6.0 0.00 0.00 0.00 63 1016.7
20260905234024 69 296 4.0 6.0 0.00 0.00 0.00 62 1016.7
20260905233525 69 290 4.0 6.0 0.00 0.00 0.00 61 1016.7
20260905233047 69 290 3.0 7.0 0.00 0.00 0.00 61 1016.7
20260905232528 69 271 3.0 8.0 0.00 0.00 0.00 63 1016.7
20260905232027 68 284 4.0 8.0 0.00 0.00 0.00 65 1016.7
20260905231554 68 319 6.0 8.0 0.00 0.00 0.00 65 1016.7
20260905231029 68 295 2.0 6.0 0.00 0.00 0.00 65 1016.8
20260905230527 68 315 3.0 5.0 0.00 0.00 0.00 64 1016.8
20260905230110 68 266 3.0 7.0 0.00 0.00 0.00 64 1016.7
20260905225526 67 276 2.0 7.0 0.00 0.00 0.00 66 1016.8
20260905225025 67 287 5.0 8.0 0.00 0.00 0.00 67 1016.8
20260905224549 67 229 6.0 9.0 0.00 0.00 0.00 69 1016.8
20260905224029 68 304 6.0 9.0 0.00 0.00 0.00 68 1016.8
20260905223524 67 290 4.0 7.0 0.00 0.00 0.00 68 1016.9
20260905223050 67 302 3.0 7.0 0.00 0.00 0.00 68 1016.8
20260905222528 68 304 4.0 7.0 0.00 0.00 0.00 68 1016.8
20260905222030 68 293 3.0 6.0 0.00 0.00 0.00 67 1016.8
20260905221547 68 263 2.0 6.0 0.00 0.00 0.00 68 1017.0
20260905221025 68 338 2.0 5.0 0.00 0.00 0.00 68 1017.0
20260905220525 68 248 3.0 6.0 0.00 0.00 0.00 66 1017.1
20260905220047 68 252 1.0 6.0 0.00 0.00 0.00 67 1017.1
20260905215526 68 248 2.0 7.0 0.00 0.00 0.00 67 1017.2
20260905215024 68 243 3.0 7.0 0.00 0.00 0.00 68 1017.1
20260905214551 68 193 4.0 6.0 0.00 0.00 0.00 65 1017.2
20260905214026 68 212 1.0 6.0 0.00 0.00 0.00 68 1017.3
20260905213525 67 278 2.0 8.0 0.00 0.00 0.00 68 1017.3
20260905213046 68 225 3.0 8.0 0.00 0.00 0.00 68 1017.3
20260905212526 68 221 3.0 6.0 0.00 0.00 0.00 68 1017.3
20260905212029 67 84 3.0 6.0 0.00 0.00 0.00 69 1017.3
20260905211554 67 281 2.0 8.0 0.00 0.00 0.00 71 1017.4
20260905211025 66 291 3.0 8.0 0.00 0.00 0.00 71 1017.4
20260905210524 66 252 4.0 8.0 0.00 0.00 0.00 71 1017.3
20260905210050 66 229 3.0 8.0 0.00 0.00 0.00 72 1017.4
20260905205524 66 276 4.0 9.0 0.00 0.00 0.00 71 1017.3
20260905205026 66 266 3.0 9.0 0.00 0.00 0.00 73 1017.3
20260905204548 66 250 5.0 9.0 0.00 0.00 0.00 73 1017.2
20260905204026 66 288 6.0 9.0 0.00 0.00 0.00 72 1017.3
20260905203525 66 262 4.0 9.0 0.00 0.00 0.00 71 1017.4
20260905203056 66 254 4.0 9.0 0.00 0.00 0.00 72 1017.3
20260905202526 66 238 5.0 9.0 0.00 0.00 0.00 72 1017.3
20260905202024 66 255 5.0 8.0 0.00 0.00 0.00 72 1017.3
20260905201550 66 240 3.0 8.0 0.00 0.00 0.00 73 1017.4
20260905201024 66 289 3.0 8.0 0.00 0.00 0.00 74 1017.5
20260905200526 66 278 4.0 10.0 0.00 0.00 0.00 75 1017.5
20260905200050 66 243 5.0 10.0 0.00 0.00 0.00 73 1017.5
20260905195527 66 180 4.0 10.0 0.00 0.00 0.00 74 1017.5
20260905195030 66 235 4.0 8.0 0.00 0.00 0.00 74 1017.5
20260905194554 66 255 4.0 8.0 0.00 0.00 0.00 74 1017.5
20260905194025 65 298 4.0 8.0 0.00 0.00 0.00 75 1017.6
20260905193526 65 285 5.0 8.0 0.00 0.00 0.00 74 1017.6
20260905193105 65 262 5.0 8.0 0.00 0.00 0.00 75 1017.7
20260905192525 65 270 4.0 8.0 0.00 0.00 0.00 75 1017.7
20260905192027 65 287 4.0 8.0 0.00 0.00 0.00 77 1017.8
20260905191548 64 272 3.0 9.0 0.00 0.00 0.00 79 1017.8
20260905191024 64 283 4.0 10.0 0.00 0.00 0.00 79 1017.7
20260905190526 64 291 5.0 10.0 0.00 0.00 0.00 80 1017.8
20260905190042 64 234 4.0 9.0 0.00 0.00 0.00 81 1017.9
20260905185525 64 228 6.0 11.0 0.00 0.00 0.00 80 1017.8
20260905185027 64 223 5.0 11.0 0.00 0.00 0.00 82 1017.9
20260905184559 63 238 7.0 11.0 0.00 0.00 0.00 81 1017.8
20260905184024 64 271 5.0 10.0 0.00 0.00 0.00 80 1017.8
20260905183525 64 264 5.0 10.0 0.00 0.00 0.00 80 1017.8
20260905183055 63 292 7.0 10.0 0.00 0.00 0.00 78 1018.0
20260905182523 64 255 5.0 8.0 0.00 0.00 0.00 78 1017.9
20260905182025 64 287 5.0 8.0 0.00 0.00 0.00 77 1018.1
20260905181547 64 250 5.0 8.0 0.00 0.00 0.00 77 1018.1
20260905181025 64 252 4.0 8.0 0.00 0.00 0.00 75 1018.1
20260905180525 65 283 5.0 8.0 0.00 0.00 0.00 74 1018.1
20260905180046 66 169 3.0 7.0 0.00 0.00 0.00 74 1018.2
20260905175526 66 98 2.0 6.0 0.00 0.00 0.00 75 1018.2
20260905175026 65 90 3.0 6.0 0.00 0.00 0.00 76 1018.2
20260905174550 65 250 2.0 5.0 0.00 0.00 0.00 76 1018.1
20260905174025 66 255 2.0 5.0 0.00 0.00 0.00 75 1018.1
20260905173525 66 214 1.0 4.0 0.00 0.00 0.00 75 1018.0
20260905173048 66 27 1.0 5.0 0.00 0.00 0.00 76 1018.0
20260905172525 66 175 3.0 5.0 0.00 0.00 0.00 75 1018.0
20260905172026 66 183 1.0 5.0 0.00 0.00 0.00 77 1018.0
20260905171548 66 211 1.0 5.0 0.00 0.00 0.00 76 1018.0
20260905171026 66 142 2.0 5.0 0.00 0.00 0.00 76 1018.1
20260905170526 65 147 1.0 4.0 0.00 0.00 0.00 79 1018.1
20260905170043 65 134 2.0 4.0 0.00 0.00 0.00 80 1018.0
20260905165525 65 147 2.0 4.0 0.00 0.00 0.00 79 1018.1
20260905165025 64 131 1.0 4.0 0.00 0.00 0.00 81 1018.1
20260905164548 63 120 1.0 4.0 0.00 0.00 0.00 82 1018.1
20260905164025 62 132 2.0 4.0 0.00 0.00 0.00 81 1018.1
20260905163530 62 136 3.0 4.0 0.00 0.00 0.00 80 1018.0
20260905163051 63 137 2.0 4.0 0.00 0.00 0.00 81 1018.2
20260905162526 63 120 2.0 3.0 0.00 0.00 0.00 83 1018.2
20260905162026 63 132 2.0 3.0 0.00 0.00 0.00 82 1018.0
20260905161544 63 143 1.0 3.0 0.00 0.00 0.00 85 1018.0
20260905161027 62 0 1.0 4.0 0.00 0.00 0.00 86 1017.9
20260905160526 61 131 2.0 4.0 0.00 0.00 0.00 86 1018.0
20260905160055 61 141 2.0 4.0 0.00 0.00 0.00 87 1018.1
20260905155527 61 82 2.0 4.0 0.00 0.00 0.00 88 1018.0
20260905155026 61 114 2.0 4.0 0.00 0.00 0.00 88 1018.0
20260905154602 61 91 1.0 2.0 0.00 0.00 0.00 90 1018.1
20260905154025 61 0 0.0 0.0 0.00 0.00 0.00 92 1018.0
20260905153525 61 0 0.0 0.0 0.00 0.00 0.00 94 1017.9
20260905153049 60 0 0.0 0.0 0.00 0.00 0.00 97 1017.8
20260905152526 58 0 0.0 1.0 0.00 0.00 0.00 97 1017.8
20260905152028 56 0 0.0 1.0 0.00 0.00 0.00 97 1017.7
20260905151553 56 299 0.0 2.0 0.00 0.00 0.00 97 1017.7
20260905151026 55 299 1.0 2.0 0.00 0.00 0.00 97 1017.7
20260905150526 54 295 1.0 2.0 0.00 0.00 0.00 97 1017.8
20260905150049 53 293 1.0 2.0 0.00 0.00 0.00 97 1017.8
20260905145529 53 292 1.0 2.0 0.00 0.00 0.00 97 1017.7
20260905145027 52 295 1.0 1.0 0.00 0.00 0.00 96 1017.8
20260905144548 52 299 1.0 1.0 0.00 0.00 0.00 97 1017.8
20260905144027 52 299 0.0 2.0 0.00 0.00 0.00 97 1018.0
20260905143526 52 299 0.0 2.0 0.00 0.00 0.00 96 1018.0
20260905143049 52 0 0.0 0.0 0.00 0.00 0.00 96 1018.0
20260905142524 52 0 0.0 0.0 0.00 0.00 0.00 96 1018.0
20260905142025 52 0 0.0 0.0 0.00 0.00 0.00 96 1018.0
20260905141547 53 0 0.0 1.0 0.00 0.00 0.00 96 1017.9
20260905141028 53 0 0.0 2.0 0.00 0.00 0.00 96 1017.9
20260905140527 53 40 1.0 2.0 0.00 0.00 0.00 96 1017.8
20260905140048 53 0 0.0 2.0 0.00 0.00 0.00 96 1017.8
20260905135526 53 0 0.0 1.0 0.00 0.00 0.00 96 1017.8
20260905135026 53 40 0.0 1.0 0.00 0.00 0.00 96 1017.7
20260905134546 53 41 0.0 1.0 0.00 0.00 0.00 96 1017.6
20260905134028 54 288 1.0 2.0 0.00 0.00 0.00 96 1017.6
20260905133526 54 288 1.0 2.0 0.00 0.00 0.00 96 1017.5
20260905133048 54 297 1.0 1.0 0.00 0.00 0.00 96 1017.6
20260905132525 54 0 0.0 1.0 0.00 0.00 0.00 96 1017.5
20260905132027 55 0 0.0 1.0 0.00 0.00 0.00 96 1017.5
20260905131548 55 329 0.0 1.0 0.00 0.00 0.00 96 1017.3
20260905131037 55 0 0.0 0.0 0.00 0.00 0.00 96 1017.3
20260905130529 55 0 0.0 0.0 0.00 0.00 0.00 96 1017.3
20260905130047 55 0 0.0 1.0 0.00 0.00 0.00 96 1017.2
20260905125527 55 0 0.0 1.0 0.00 0.00 0.00 96 1017.3
20260905125028 54 0 0.0 1.0 0.00 0.00 0.00 97 1017.3
20260905124601 54 0 0.0 1.0 0.00 0.00 0.00 96 1017.3
20260905124026 54 274 1.0 1.0 0.00 0.00 0.00 96 1017.3
20260905123526 54 274 0.0 1.0 0.00 0.00 0.00 97 1017.1
20260905123051 54 274 1.0 1.0 0.00 0.00 0.00 97 1017.2